Terug naar catalogus

CYGFM04

ActiefWeerVLEO
NORAD 41885·PAYLOAD·🇺🇸 United States

Gelanceerd Dec 15, 2016 vanaf Cape Canaveral Space Force Station

Loading…

Volgende Passages (komende 24 uur)

TLE

VersSource: Space-Track

Epoch: Sep 14, 2026, 15:15 UTC

1 41885U 16078B   26257.63570945  .00032768  00000-0  29952-3 0  9995
2 41885  34.9324 349.1813 0003919 342.5117  17.5474 15.66751905543013

Volg CYGFM04 in realtime met AllMySat

Download on the App Store